Tracking 31027 objects as of 19-Jul-2025
HD Live streaming from Space Station
objects crossing your sky now

YAOGAN-39 02C

Track YAOGAN-39 02C now!
10-day predictions


NORAD ID: 57890
Int'l Code: 2023-145E
Perigee: 513.5 km
Apogee: 531.0 km
Inclination: 35.0 °
Period: 94.9 minutes
Semi major axis: 6893 km
RCS: Unknown
Launch date: September 17, 2023
Source: People's Republic of China (PRC)
Launch site: Xichang Space Center, China (XSC)
Your satellite tracking list
STARLINK-1243
Track 1 satellite(s)




NASA's NSSDC Master Catalog

Two Line Element Set (TLE):
1 57890U 23145E   25199.87687789  .00005411  00000-0  26910-3 0  9992
2 57890  34.9929 142.2053 0012728 237.9060 122.0417 15.16935887102206
Source of the keplerian elements: AFSPC